Key West, FL

9:35 AM EST on November 20, 2017 (GMT -0500)
Key West International

Weather History for KEYW - January, 2014

Change the Weather History Date:

Wednesday, January 29, 2014

  Actual Average Record
Temperature  
Mean Temperature 73 °F 70 °F  
Max Temperature 80 °F 75 °F 86 °F (1991)
Min Temperature 66 °F 65 °F 45 °F (1940)
Degree Days  
Heating Degree Days 0 1  
Month to date heating degree days 22 29  
Since 1 July heating degree days 22 47  
Cooling Degree Days 8 5  
Month to date cooling degree days 146 147  
Year to date cooling degree days 146 147  
Growing Degree Days 23 (Base 50)    
Moisture  
Dew Point 69 °F    
Average Humidity 91    
Maximum Humidity 100    
Minimum Humidity 82    
Precipitation  
Precipitation 1.15 in 0.07 in 1.78 in (1997)
Month to date precipitation 6.14 1.92  
Year to date precipitation 6.14 1.92  
Snow  
Snow 0.00 in - - ()
Month to date snowfall 0.0  
Since 1 July snowfall 0.0  
Snow Depth 0.00 in    
Sea Level Pressure  
Sea Level Pressure 30.02 in    
Wind  
Wind Speed 8 mph (East)    
Max Wind Speed 21 mph    
Max Gust Speed 26 mph    
Visibility 9 miles    
Events Rain , Thunderstorm    
T = Trace of Precipitation, MM = Missing Value Source: NWS Daily Summary

Daily Weather History Graph

Daily Weather History Graph

Search for Another Location

Airport or City:

Trip Planner

Search our weather history database for the weather conditions in past years. The results will help you decide how hot, cold, wet, or windy it might be!

Date:

Astronomy

Jan. 29, 2014 Rise Set
Actual Time 7:10 AM EST 6:10 PM EST
Civil Twilight 6:46 AM EST 6:34 PM EST
Nautical Twilight 6:18 AM EST 7:01 PM EST
Astronomical Twilight 5:51 AM EST 7:28 PM EST
Moon 5:44 AM EST (1/29) 5:07 PM EST (1/29)
Length of Visible Light 11h 48m
Length of Day
11h 00m
Waning Crescent, 2% of the Moon is Illuminated
Jan 29
Waning Crescent
Jan 30
New
Feb 6
First Quarter
Feb 14
Full
Feb 22
Last Quarter

Hourly Weather History & Observations

Time (EST) Temp. Dew Point Humidity Pressure Visibility Wind Dir Wind Speed Gust Speed Precip Events Conditions
12:53 AM 73.0 °F 71.1 °F 93% 30.03 in 10.0 mi East 3.5 mph - N/A   Mostly Cloudy
1:53 AM 73.0 °F 71.1 °F 93% 30.01 in 10.0 mi ESE 5.8 mph - N/A   Overcast
2:09 AM 73.0 °F 71.1 °F 93% 30.01 in 2.0 mi SSE 4.6 mph - 0.15 in Rain Heavy Rain
2:15 AM 72.0 °F 70.0 °F 93% 30.01 in 3.0 mi South 5.8 mph - 0.20 in Rain Light Rain
2:46 AM 73.0 °F 71.1 °F 93% 30.00 in 10.0 mi ESE 9.2 mph - 0.21 in Thunderstorm Thunderstorm
2:53 AM 72.0 °F 69.1 °F 91% 30.00 in 10.0 mi ESE 9.2 mph - 0.21 in Rain , Thunderstorm Light Thunderstorms and Rain
3:01 AM 72.0 °F 69.1 °F 91% 30.00 in 10.0 mi ESE 8.1 mph - 0.01 in Rain , Thunderstorm Light Rain
3:09 AM 72.0 °F 70.0 °F 93% 29.99 in 6.0 mi ESE 6.9 mph - 0.03 in Rain , Thunderstorm Heavy Thunderstorms and Rain
3:23 AM 71.1 °F 68.0 °F 90% 29.99 in 6.0 mi ESE 11.5 mph - 0.05 in Rain , Thunderstorm Light Rain
3:33 AM 72.0 °F 70.0 °F 93% 30.01 in 1.8 mi South 8.1 mph - 0.15 in Rain , Thunderstorm Heavy Rain
3:37 AM 72.0 °F 70.0 °F 93% 30.01 in 1.0 mi SSW 18.4 mph 25.3 mph 0.34 in Rain , Thunderstorm Heavy Thunderstorms and Rain
3:41 AM 71.1 °F 69.1 °F 93% 30.00 in 0.8 mi SSE 9.2 mph 25.3 mph 0.68 in Rain , Thunderstorm Heavy Thunderstorms and Rain
3:45 AM 71.1 °F 69.1 °F 93% 30.00 in 1.0 mi SE 10.4 mph - 0.90 in Rain , Thunderstorm Heavy Thunderstorms and Rain
3:49 AM 71.6 °F 69.8 °F 94% 30.00 in 2.0 mi ESE 5.8 mph - 0.92 in Rain , Thunderstorm Heavy Thunderstorms and Rain
3:53 AM 71.1 °F 69.1 °F 93% 30.00 in 5.0 mi ESE 5.8 mph - 0.92 in Rain , Thunderstorm Light Thunderstorms and Rain
4:02 AM 71.1 °F 70.0 °F 96% 30.00 in 10.0 mi East 5.8 mph - 0.00 in Thunderstorm Thunderstorm
4:05 AM 71.1 °F 70.0 °F 96% 29.99 in 10.0 mi ESE 5.8 mph - 0.00 in   Mostly Cloudy
4:53 AM 71.1 °F 70.0 °F 96% 29.99 in 10.0 mi SSE 4.6 mph - 0.00 in   Scattered Clouds
5:53 AM 72.0 °F 71.1 °F 97% 30.00 in 10.0 mi South 3.5 mph - N/A   Overcast
6:53 AM 73.0 °F 70.0 °F 90% 30.01 in 10.0 mi SSE 3.5 mph - N/A   Overcast
7:53 AM 73.0 °F 71.1 °F 93% 30.03 in 10.0 mi SE 4.6 mph - N/A   Partly Cloudy
8:53 AM 75.9 °F 73.0 °F 91% 30.04 in 10.0 mi South 4.6 mph - N/A   Clear
9:53 AM 77.0 °F 73.0 °F 88% 30.05 in 10.0 mi SSE 5.8 mph - N/A   Clear
10:53 AM 77.0 °F 73.0 °F 88% 30.05 in 10.0 mi South 4.6 mph - N/A   Clear
11:17 AM 79.0 °F 72.0 °F 79% 30.04 in 10.0 mi NNE 8.1 mph - N/A   Mostly Cloudy
11:26 AM 77.0 °F 70.0 °F 79% 30.04 in 10.0 mi NNE 6.9 mph - N/A   Overcast
11:53 AM 77.0 °F 72.0 °F 84% 30.04 in 10.0 mi Variable 3.5 mph - N/A   Overcast
12:17 PM 78.1 °F 73.9 °F 87% 30.03 in 10.0 mi Calm Calm - N/A   Mostly Cloudy
12:53 PM 77.0 °F 73.0 °F 88% 30.01 in 10.0 mi SSW 4.6 mph - N/A   Overcast
1:28 PM 79.0 °F 73.0 °F 82% 29.99 in 10.0 mi NE 3.5 mph - N/A   Mostly Cloudy
1:53 PM 79.0 °F 73.9 °F 84% 29.99 in 10.0 mi Variable 4.6 mph - N/A   Scattered Clouds
2:26 PM 78.1 °F 71.1 °F 79% 29.98 in 10.0 mi North 8.1 mph - N/A   Overcast
2:53 PM 73.9 °F 68.0 °F 82% 29.98 in 10.0 mi North 12.7 mph - N/A   Mostly Cloudy
3:02 PM 73.0 °F 68.0 °F 84% 29.98 in 10.0 mi North 12.7 mph - N/A   Overcast
3:53 PM 73.9 °F 69.1 °F 85% 29.98 in 10.0 mi NNE 11.5 mph - 0.00 in   Scattered Clouds
4:53 PM 73.0 °F 68.0 °F 84% 29.99 in 10.0 mi NNE 12.7 mph - N/A   Clear
5:53 PM 71.1 °F 68.0 °F 90% 29.99 in 10.0 mi NE 10.4 mph - N/A   Clear
6:53 PM 70.0 °F 68.0 °F 93% 30.00 in 10.0 mi NE 9.2 mph - N/A   Clear
7:49 PM 69.8 °F 68.0 °F 94% 30.01 in 10.0 mi NNE 12.7 mph - N/A   Mostly Cloudy
7:53 PM 70.0 °F 68.0 °F 93% 30.01 in 10.0 mi NNE 11.5 mph - N/A   Mostly Cloudy
8:15 PM 70.0 °F 68.0 °F 93% 30.02 in 10.0 mi NNE 9.2 mph - N/A   Mostly Cloudy
8:24 PM 70.0 °F 68.0 °F 93% 30.03 in 10.0 mi NNE 9.2 mph - N/A   Mostly Cloudy
8:53 PM 69.1 °F 66.9 °F 93% 30.04 in 10.0 mi NNE 15.0 mph - N/A   Overcast
9:53 PM 68.0 °F 64.9 °F 90% 30.06 in 10.0 mi North 15.0 mph 21.9 mph N/A   Overcast
10:39 PM 66.9 °F 64.9 °F 93% 30.06 in 9.0 mi NE 10.4 mph 21.9 mph 0.02 in Rain Light Rain
10:53 PM 66.9 °F 64.0 °F 90% 30.06 in 10.0 mi NNE 16.1 mph - 0.02 in Rain Light Rain
11:05 PM 66.0 °F 64.0 °F 93% 30.06 in 10.0 mi NNE 16.1 mph 23.0 mph 0.00 in Rain Light Rain
11:33 PM 66.9 °F 64.9 °F 93% 30.06 in 10.0 mi NNE 11.5 mph 21.9 mph 0.00 in   Overcast
11:49 PM 66.2 °F 64.4 °F 94% 30.06 in 10.0 mi NNE 17.3 mph 25.3 mph 0.00 in   Overcast
11:53 PM 66.0 °F 64.0 °F 93% 30.06 in 10.0 mi NNE 13.8 mph 25.3 mph 0.00 in   Overcast